Location: Buenos Aires
(34.5875°S, 58.6725°W)
Time: 01:53:00
(UTC+00:00)

Daily predictions for brighter satellites

Satellite Brightness Start Highest point End
(mag) Time Altitude Azimuth Time Altitude Azimuth Time Altitude Azimuth
Meteor 2-20 Rocket 4.5 00:03:58 10° S 00:10:08 84° W 00:16:13 10° N
USA 305 3.9 00:08:41 10° SSW 00:12:41 36° SE 00:14:59 21° E
Cosmos 2369 Rocket 2.4 00:08:25 10° N 00:13:43 46° ENE 00:19:05 10° SE
OBJECT-B 1.6 00:15:57 10° SSE 00:19:01 32° E 00:19:04 32° E
USA 306 3.7 00:17:00 10° SSW 00:21:07 42° SE 00:23:04 26° E
FREGAT/IRIS 3.3 00:19:03 10° SSE 00:20:47 31° ESE 00:20:47 31° ESE
Atlas Centaur 2 3.5 00:15:30 10° W 00:21:45 39° NNW 00:25:54 23° NNE
USA 186 1.3 00:22:33 10° S 00:24:58 62° WSW 00:25:19 51° NW
Cosmos 1943 Rocket 2.3 00:19:54 10° NNW 00:25:34 80° WSW 00:31:19 10° SSE
SL-4 R/B 3.5 00:21:18 10° SSW 00:25:36 34° SE 00:28:10 21° E
Cosmos 1378 3.7 00:23:25 10° S 00:27:02 40° E 00:27:39 37° ENE
Cosmos 1271 Rocket 4.4 00:24:53 10° SSW 00:28:28 33° W 00:31:58 10° NNW
Cosmos 1536 3.4 00:25:22 10° NNW 00:29:22 58° W 00:33:27 10° S
Cosmos 1605 Rocket 4.0 00:25:34 10° N 00:31:46 85° W 00:38:10 10° S
GPS 2-04 Rocket1 4.3 00:28:48 10° WNW 00:31:47 21° NNW 00:32:19 20° NNW
MOS 1-B Rocket 3.8 00:29:06 24° NNE 00:32:47 80° ESE 00:38:26 10° S
Cosmos 1066 Rocket 4.1 00:30:01 10° S 00:35:29 74° E 00:38:16 30° NNE
Cosmos 1975 4.3 00:36:46 22° ESE 00:36:46 22° ESE 00:39:24 10° SE
IRS-1A Rocket 4.2 00:30:36 10° SSE 00:36:14 65° ENE 00:39:47 23° N
Cosmos 44 3.3 00:31:12 10° NNW 00:36:25 83° ENE 00:41:24 10° SSE
Cosmos 1733 Rocket 3.0 00:35:05 21° N 00:38:00 84° W 00:42:28 10° S
OAO 3 Copernicus 4.2 00:34:52 10° W 00:39:57 82° NNW 00:41:59 37° ENE
Intercosmos 25 3.7 00:39:19 10° S 00:43:15 73° E 00:45:26 35° NNE
FALCON 9 DEB 3.4 00:40:29 10° SW 00:43:56 55° SE 00:44:12 53° ESE
Cosmos 1459 Rocket 4.4 00:47:40 35° NE 00:49:38 46° E 00:55:35 10° SSE
Cosmos 1674 Rocket 3.7 00:48:19 10° S 00:52:46 57° E 00:53:18 53° ENE
CZ-2C R/B 1.4 00:48:31 10° W 00:53:01 85° S 00:54:14 47° E
SEDSat Delta rocket 4.0 00:46:58 10° W 00:53:36 68° N 00:56:31 36° ENE
USA 281 3.7 00:47:35 10° SSE 00:54:06 62° WSW 01:00:34 10° NW
Cosmos 2251 Rocket 3.5 00:50:24 10° SSW 00:55:51 85° ESE 00:57:32 46° NNE
Cosmos 2082 Rocket 3.9 00:52:54 10° SW 00:57:28 25° WNW 01:01:34 12° NNW
SJ-6B 4.0 00:56:30 10° S 01:00:29 44° WSW 01:03:14 18° NW
Cosmos 614 Rocket 4.3 00:56:27 10° S 01:01:31 48° ESE 01:02:18 44° E
Resurs 1-3 3.5 00:57:28 10° SSE 01:01:57 83° ENE 01:02:45 60° N
Cosmos 2173 Rocket 4.0 01:02:08 43° NNE 01:04:00 62° E 01:10:11 10° SSE
NOSS 2-3 (D) 4.2 00:59:26 10° SSW 01:06:03 74° ESE 01:07:18 53° NE
Cosmos 371 Rocket 3.3 01:07:20 60° ENE 01:07:22 60° ENE 01:12:10 10° SSE
SPOT 3 Rocket 3.5 01:03:35 10° SSE 01:08:50 64° ENE 01:09:35 57° NE
Cosmos 407 Rocket 4.3 01:05:56 10° S 01:10:40 35° ESE 01:11:00 35° ESE
Cosmos 2263 4.3 01:07:24 19° NNW 01:11:33 77° WSW 01:17:20 10° SSE
Cosmos 1371 Rocket 3.9 01:15:13 61° NNE 01:16:06 76° ENE 01:21:30 10° SSE
USA 307 3.2 01:13:15 10° SW 01:17:17 59° WNW 01:17:17 59° WNW
Cosmos 1725 Rocket 4.3 01:20:15 44° E 01:20:40 45° E 01:26:37 10° SSE
Cosmos 1908 Rocket 3.6 01:21:05 74° WNW 01:21:18 77° W 01:25:49 10° S
Cosmos 2056 Rocket 3.4 01:22:16 67° NNE 01:22:52 76° ENE 01:28:19 10° SSE
USA 308 3.5 01:19:37 10° SW 01:23:23 49° WNW 01:23:23 49° WNW
Cosmos 1656 Rocket 3.7 01:22:54 37° NNW 01:25:05 75° WSW 01:30:33 10° SSE
Cosmos 1140 Rocket 4.2 01:20:31 10° S 01:25:22 39° ESE 01:25:22 39° ESE
Cosmos 1782 Rocket 4.0 01:30:17 54° SE 01:30:17 54° SE 01:33:58 10° SSE
NOSS 2-3 (C) 4.1 01:23:45 10° SW 01:30:07 67° WNW 01:30:41 62° NNW
ARIANE 5 R/B 3.8 01:27:18 10° SSE 01:30:05 33° SE 01:30:05 33° SE
USA 229 DEB 3.7 01:25:10 10° SW 01:31:45 62° WNW 01:33:08 50° NNW
USA 229 3.7 01:25:15 10° SW 01:31:50 63° WNW 01:33:13 51° NNW
Resurs 01 Rocket 1.8 01:30:13 10° S 01:34:38 69° WSW 01:34:38 69° WSW
Landsat 7 4.2 01:34:19 10° SSE 01:38:15 55° SE 01:38:15 55° SE
Cosmos 1624 Rocket 4.1 01:39:21 64° WNW 01:39:59 73° WSW 01:45:14 10° SSE
Cosmos 332 Rocket 4.0 01:42:10 67° SSE 01:42:10 67° SSE 01:46:26 10° SSE
Cosmos 1975 Rocket 4.2 01:37:23 10° S 01:40:20 35° SE 01:40:20 35° SE
Cosmos 2061 Rocket 3.9 01:40:55 67° NNE 01:41:47 81° E 01:48:15 10° S
IGS 5A 4.3 01:38:14 10° SSE 01:41:15 46° SSE 01:41:15 46° SSE
NOSS 3-1 (C) 4.3 01:41:01 10° SW 01:45:59 30° WNW 01:46:34 29° WNW
NOSS 3-1 (A) 3.4 01:41:36 10° SW 01:47:23 56° WNW 01:47:30 55° WNW
USA 245 4.4 01:43:19 10° SSE 01:46:26 49° SSE 01:46:26 49° SSE
Okean 2 4.4 01:46:00 10° SSW 01:49:07 46° SSW 01:49:07 46° SSW
Meteor 1-21 4.1 01:45:30 10° S 01:51:12 88° E 01:51:12 88° E
USA 32 4.3 01:51:13 60° WNW 01:51:34 61° W 01:56:50 10° S
SPOT 1/Viking Rocket 3.9 01:46:44 10° SSE 01:50:55 53° SE 01:50:55 53° SE
Cosmos 2016 Rocket 4.0 01:53:46 63° NW 01:54:46 77° W 02:01:04 10° S
Cosmos 1816 Rocket 4.5 01:50:07 10° S 01:56:18 65° E 01:56:19 65° E
Cosmos 1420 Rocket 4.2 01:58:35 69° SSE 01:58:35 69° SSE 02:03:17 10° SSE
Cosmos 2369 Rocket 4.4 01:53:42 10° WNW 01:57:56 22° WSW 02:02:12 10° S
Thor Agena Rocket 4.1 02:02:53 51° SE 02:02:53 51° SE 02:07:21 10° S
Cosmos 1802 Rocket 4.5 02:01:08 44° NW 02:02:37 54° W 02:08:41 10° S
ATLAS 2A CENTAUR R/B 3.7 01:44:10 10° W 02:03:38 42° NNW 02:03:54 42° NNW
SL-4 R/B 3.8 02:00:53 10° WSW 02:03:44 30° W 02:03:44 30° W
SPOT 5 4.0 02:13:05 10° SSE 02:16:18 37° SE 02:16:18 37° SE
Lacrosse 5 4.4 02:17:55 10° S 02:20:36 14° SSE 02:22:49 11° ESE
BREEZE-M DEB (TANK) 3.9 02:01:47 10° SW 02:20:50 67° NW 02:21:15 66° NNW
Milstar 3 3.8 02:15:30 10° WNW 02:29:47 23° E 02:34:13 10° E
ERS-1 Rocket 3.8 02:21:25 10° SSE 02:25:00 46° SSE 02:25:00 46° SSE
CZ-2C R/B 4.3 02:28:26 10° W 02:28:34 11° W 02:28:34 11° W
Terra 3.3 02:30:38 10° SSE 02:33:18 32° SSE 02:33:18 32° SSE
Cosmos 2227 Rocket 3.5 03:19:38 10° S 03:24:08 33° SE 03:24:08 33° SE
Cosmos 1980 Rocket 4.1 03:35:02 21° ESE 03:35:02 21° ESE 03:37:30 10° SE
Resurs 1-4 Rocket 4.2 03:33:12 18° ESE 03:33:12 18° ESE 03:36:39 10° SSE
Meteor 1-24 Rocket 4.5 03:27:21 10° S 03:31:36 51° S 03:31:36 51° S
SeaSat 1 4.2 03:29:20 10° SSE 03:31:39 27° SE 03:31:39 27° SE
BREEZE-M DEB (TANK) 4.0 03:15:24 10° NW 03:35:45 62° ESE 03:39:10 10° SE
Cosmos 2219 4.1 03:32:29 10° SSW 03:36:43 45° SSE 03:36:43 45° SSE
Cosmos 2297 Rocket 3.1 03:53:02 10° SSW 03:57:00 46° SSW 03:57:00 46° SSW
CZ-2D R/B 3.5 04:01:47 33° ESE 04:01:47 33° ESE 04:06:07 10° S
Lacrosse 5 3.5 03:59:17 10° SW 04:01:59 31° SSW 04:01:59 31° SSW
Terra 4.5 04:11:00 10° SW 04:12:11 11° WSW 04:12:11 11° WSW
USA 267 3.5 04:06:32 10° SE 04:13:01 60° SW 04:13:29 58° WSW
Cosmos 2322 Rocket 4.3 04:27:32 15° E 04:27:32 15° E 04:30:00 10° ESE
ALOS 2 4.5 04:29:51 10° S 04:32:04 28° S 04:32:04 28° S
Cosmos 2279 Rocket 4.1 04:38:32 70° SE 04:38:32 70° SE 04:44:14 10° S
Cosmos 1697 Rocket 3.8 04:39:08 36° SW 04:39:08 36° SW 04:43:38 10° S
CZ-4C R/B 3.8 04:43:34 10° S 04:47:59 25° SE 04:49:51 20° E
Cosmos 2360 Rocket 4.1 05:03:51 18° ENE 05:04:19 18° E 05:08:04 10° ESE
Milstar 3 4.2 05:03:25 44° WNW 05:07:21 59° N 05:26:35 10° ENE
Cosmos 2227 Rocket 4.0 05:03:52 10° SW 05:05:55 19° WSW 05:05:55 19° WSW
Resurs 1-4 Rocket 3.2 05:14:15 35° SW 05:14:15 35° SW 05:17:37 10° SSW
Cosmos 2228 4.3 05:15:40 38° SSE 05:15:40 38° SSE 05:18:23 10° S
Cosmos 1400 Rocket 4.4 05:17:06 35° SSE 05:17:06 35° SSE 05:19:36 10° SSE
IDEFIX/ARIANE 42P 4.4 05:13:12 18° ENE 05:15:43 26° ESE 05:20:02 10° SSE
Cosmos 1980 Rocket 3.2 05:16:47 35° WSW 05:16:47 35° WSW 05:21:46 10° S
CZ-4B R/B 4.0 05:17:49 53° ESE 05:17:49 53° ESE 05:22:27 10° S
Helios 1A 4.3 05:14:34 10° S 05:17:14 38° S 05:17:14 38° S
NOSS 3-4 (A) 3.6 05:16:25 10° SW 05:22:25 63° WSW 05:22:25 63° WSW
NOSS 3-4 (C) 3.6 05:16:31 10° SW 05:22:35 64° WSW 05:22:35 64° WSW
Cosmos 2266 Rocket 4.0 05:18:25 10° S 05:24:31 68° E 05:25:18 61° NE
SL-16 R/B 2.2 05:25:55 73° E 05:25:55 73° E 05:31:28 10° SSE
Cosmos 1354 Rocket 4.4 05:23:49 10° SSW 05:28:04 57° SW 05:28:04 57° SW
ADEOS II 2.1 05:32:45 72° SW 05:32:45 72° SW 05:37:34 10° SSW
Cosmos 1726 Rocket 4.3 05:38:17 48° S 05:38:17 48° S 05:41:30 10° S
DELTA 2 R/B (1) 4.1 05:36:01 25° WSW 05:39:16 58° S 05:44:48 10° E
Cosmos 1825 Rocket 4.4 05:35:20 10° S 05:38:39 48° SSW 05:38:39 48° SSW
ATLAS 2AS CENTAUR R/B 2.7 05:33:31 10° SW 05:40:26 72° WNW 05:41:51 58° N
CZ-2D R/B 3.8 05:43:07 22° WSW 05:43:07 22° WSW 05:45:50 10° SW
Aureole 3 Rocket 4.1 05:45:39 38° E 05:45:39 38° E 05:49:08 10° SSE
Cosmos 1809 Rocket 4.3 05:39:49 10° S 05:46:06 84° W 05:47:03 66° N
ARIANE 5 R/B 3.1 05:46:01 41° NE 05:47:35 57° ESE 05:52:42 10° S
BREEZE M DEB (TANK) 4.5 05:51:06 15° SSW 05:51:12 15° SSW 05:53:25 10° SSE
Cosmos 2084 Rocket 3.9 05:56:49 59° SW 05:56:49 59° SW 06:01:05 10° SSE
SJ 16-02 3.8 05:54:38 10° SSE 05:57:56 20° ESE 06:01:13 10° ENE
Cosmos 2263 Rocket 2.0 05:53:18 10° SSW 05:58:56 81° WNW 05:59:48 64° N
Cosmos 1607 4.0 06:00:56 51° N 06:02:24 69° ENE 06:08:33 10° SE
Cosmos 2237 4.2 06:02:06 57° N 06:03:15 75° ENE 06:09:01 10° SSE
ERS-1 4.4 06:04:56 58° NNE 06:05:57 87° ESE 06:11:05 10° SSW
Meteosat 1 Rocket2 4.1 06:09:05 49° NNW 06:09:48 51° N 06:18:05 10° ENE
Cosmos 2322 Rocket 2.3 06:09:20 52° W 06:10:11 57° WSW 06:15:47 10° SSE
Meteor 2-14 Rocket 4.4 06:05:34 10° SSW 06:11:43 64° W 06:13:07 50° NW
COBE Rocket 4.0 06:06:40 10° S 06:11:44 62° WSW 06:12:12 59° WNW
Meteor 2-10 Rocket 3.7 06:10:38 49° N 06:12:20 85° E 06:18:11 10° S
Meteor 2-1 Rocket 4.5 06:12:35 38° NNE 06:14:51 68° E 06:20:33 10° SSE
ISS -2.9 06:16:28 50° SE 06:16:28 50° SE 06:19:07 10° SE
Cosmos 2058 Rocket 3.6 06:16:12 44° WSW 06:16:12 44° WSW 06:20:08 10° S
MOZ.5/SAFIR/RUBIN 5/SL-8 3.7 06:13:11 10° S 06:18:01 81° WSW 06:18:47 63° NNW
GP-B 4.3 06:14:11 10° SSW 06:17:27 29° WSW 06:17:27 29° WSW
CZ-2D R/B 3.3 06:25:31 62° NNE 06:26:12 90° WNW 06:30:24 10° SSW
USA 234 3.1 06:20:16 10° NE 06:26:49 72° NW 06:33:27 10° SW
Cosmos 1346 Rocket 3.0 06:25:30 10° SSW 06:29:09 54° WSW 06:29:09 54° WSW
Cosmos 1315 Rocket 3.6 06:30:09 37° WSW 06:30:09 37° WSW 06:33:31 10° S
TELKOM 3 3.9 06:30:52 81° NW 06:31:03 89° NE 06:35:22 10° SE
UNK 3.7 06:28:29 10° SSE 06:33:11 86° ENE 06:34:41 43° N
Cosmos 468 Rocket 4.1 06:33:18 36° N 06:35:31 77° ENE 06:40:54 10° SSE
CZ-4C R/B 3.0 06:31:57 10° SW 06:34:55 26° W 06:34:55 26° W
CZ-4C R/B 4.0 06:36:47 10° SSE 06:40:23 44° E 06:41:46 29° NNE
Cosmos 1892 3.0 06:36:47 10° SSW 06:40:24 47° W 06:40:24 47° W
Cosmos 2333 Rocket 2.8 06:37:30 23° N 06:40:55 52° ENE 06:46:31 10° SSE
Cosmos-2242 4.2 06:38:54 16° NNE 06:41:52 38° E 06:45:53 10° SSE
Cosmos 921 Rocket 2.8 06:41:03 51° NNW 06:42:04 80° WSW 06:46:19 10° SSE
CZ-2C R/B 3.4 06:37:32 10° NE 06:42:08 47° ESE 06:46:57 10° S
GEOS 3 Rocket 4.3 06:38:41 10° SSE 06:43:28 42° SW 06:45:30 29° W
Centaur D-1A AC-31 3.8 06:42:47 27° NW 06:47:06 36° N 07:42:49 10° NE
COSMOS 2428 3.6 06:43:34 17° N 06:47:40 44° ENE 06:53:04 10° SE
Cosmos 2360 Rocket 2.5 06:45:38 34° WNW 06:47:48 51° WSW 06:53:23 10° S
SL-08 R/B 4.5 06:45:13 10° S 06:51:37 89° W 06:57:54 10° N
Cosmos 2219 Rocket 2.6 06:49:18 21° N 06:53:02 60° ENE 06:58:37 10° SSE
DELTA 4 R/B 4.5 06:38:25 19° WNW 06:53:14 47° N 06:58:52 10° ENE
Cosmos 1417 Rocket 4.4 06:50:24 25° NNW 06:54:06 73° W 07:00:20 10° S
IDEFIX/ARIANE 42P 3.3 06:54:01 30° WNW 06:55:05 33° W 06:59:52 10° SSW
S3M 3.9 06:52:41 19° N 06:57:19 87° W 07:03:34 10° S
Cosmos 1455 3.2 06:57:44 28° W 06:57:57 28° WSW 07:01:17 10° SSW
SL-16 R/B 2.6 06:52:31 10° S 06:58:41 65° WSW 07:02:35 24° NNW
Cosmos 2058 3.3 06:59:18 10° SSW 07:03:15 42° W 07:04:33 32° NW
Cosmos 1825 2.2 07:02:44 10° SSW 07:06:31 56° W 07:08:24 27° NNW
Cosmos 1553 Rocket 4.3 07:03:16 24° NW 07:06:59 50° W 07:13:17 10° S
MSX 4.4 07:04:52 23° NNW 07:07:53 38° W 07:13:19 10° SSW
Cosmos 2237 Rocket 4.2 07:05:33 10° NNE 07:10:00 24° E 07:14:29 10° SE
CZ-2C R/B 3.0 07:08:38 29° NNW 07:10:03 44° W 07:13:42 10° SSW
SL-16 R/B 4.2 07:07:47 11° W 07:10:27 15° SW 07:13:33 10° SSW
Meteor 1-28 Rocket 4.1 07:09:01 10° SSE 07:12:43 48° E 07:16:22 10° N
BREEZE-M DEB (TANK) 4.1 07:09:51 10° WSW 07:16:36 - NNE 07:12:26 26° W
Cosmos 1844 Rocket 2.6 07:11:39 10° SSW 07:17:18 89° WNW 07:22:54 10° NNE
RESURS DK-1 2.7 07:17:08 10° SW 07:21:06 43° WNW 07:25:03 10° N
Cosmos 1814 Rocket 4.3 07:16:56 11° N 07:21:53 67° ENE 07:27:05 10° SSE
DELTA 2 R/B (1) 3.6 07:20:15 10° WSW 07:25:50 65° NNW 07:31:24 10° NE
COSMOS 2455 2.9 07:20:24 10° SSW 07:26:29 90° SSW 07:32:30 10° NNE
ARIANE 5 R/B 4.2 07:26:21 14° W 07:26:57 14° W 07:29:45 10° WSW
Cosmos 2322 4.1 07:23:02 19° NW 07:27:01 49° WSW 07:32:36 10° S
PSLV R/B 3.6 07:26:49 10° N 07:31:02 55° W 07:35:15 10° SSW
Cosmos 1844 3.7 07:25:46 10° SSW 07:31:31 83° WNW 07:37:07 10° NNE
Cosmos 1408 4.4 07:29:40 10° SW 07:31:37 14° W 07:31:55 14° W
Cosmos 1763 Rocket 4.4 07:29:15 17° WNW 07:32:40 34° WSW 07:37:31 10° S
ALOS 2.8 07:29:05 10° NNE 07:33:43 65° ESE 07:38:24 10° S
SJ 16-02 2.2 07:32:39 10° SW 07:36:29 29° W 07:40:18 10° NNW
Meteor 1-31 Rocket 4.3 07:35:53 10° NE 07:39:27 39° ESE 07:43:05 10° S
IRAS Rocket 4.3 07:33:58 10° SSE 07:39:34 88° ENE 07:45:05 10° NNW
GOES 2 Rocket 3.8 07:37:52 15° NW 07:41:02 35° N 07:44:53 10° ENE
X-37B 2.9 07:39:36 10° N 07:41:46 17° NE 07:43:59 10° E
METEOR-M 4.5 07:39:17 10° NNE 07:44:37 73° ESE 07:50:02 10° S
Cosmos 1570 Rocket 4.2 07:39:57 11° NNW 07:45:03 61° WSW 07:50:22 10° S
ARGOS Delta rocket 3.8 07:42:23 10° NNE 07:46:52 80° ESE 07:51:20 10° S
Cosmos 1745 Rocket 4.4 07:41:03 10° SSW 07:46:52 43° W 07:52:40 10° NNW
Cosmos 1766 Rocket 3.7 07:43:36 10° S 07:48:06 84° E 07:52:34 10° N
ATLAS 5 CENTAUR R/B 1.7 07:44:28 10° SW 07:49:27 59° WNW 07:53:42 10° NNE
Cosmos 1898 Rocket 3.7 07:44:55 10° SSW 07:50:01 52° WNW 07:55:06 10° N
Cosmos 1633 2.5 07:47:29 10° S 07:51:08 87° WNW 07:54:42 10° N
ISS -1.2 07:51:06 10° WSW 07:52:54 13° SSW 07:54:41 10° S
SL-08 R/B 3.4 07:50:10 10° SSE 07:54:57 89° WSW 07:59:47 10° NNW
Okean 3 Rocket 3.6 07:52:31 10° SSW 07:57:00 70° W 08:01:22 10° N
Cosmos 540 Rocket 4.2 07:54:47 10° NW 07:59:31 36° WSW 08:04:20 10° S
Abrixas rocket 3.2 07:57:04 10° SW 07:59:47 42° SE 08:02:28 10° ENE
Cosmos 1842 Rocket 4.0 07:55:39 10° N 08:00:07 72° E 08:04:40 10° S
APEX 3.1 07:58:38 10° SSW 08:01:53 57° WNW 08:05:48 10° N
Aureole 2 Rocket 1.8 08:02:54 10° SSW 08:05:50 67° WNW 08:08:36 10° N
Cosmos 1937 Rocket 3.7 08:02:00 10° SSW 08:07:02 50° WNW 08:11:59 10° N
Lacrosse 5 rocket 2.0 08:03:18 10° NNW 08:07:41 61° NE 08:12:17 10° SE
Cosmos 2315 Rocket 4.4 08:01:45 10° NNW 08:07:49 46° W 08:13:55 10° S
CZ-4B R/B 3.9 08:04:44 10° N 08:08:44 79° WNW 08:13:01 10° SSW
Cosmos 1709 Rocket 4.3 08:05:59 10° SSW 08:12:01 50° W 08:18:03 10° NNW
ADEOS Rocket 3.9 08:07:01 10° SSE 08:12:21 47° E 08:17:45 10° N
